Marion, IL

7:43 PM CST on December 05, 2016 (GMT -0600)
Williamson County Regional

Weather History for KMWA - February, 2013

Change the Weather History Date:

Thursday, February 7, 2013

  Actual Average Record
Temperature  
Mean Temperature 48 °F -  
Max Temperature 64 °F 34 °F 64 °F (2013)
Min Temperature 32 °F 18 °F -4 °F (1982)
Degree Days  
Heating Degree Days 17    
Moisture  
Dew Point 40 °F    
Average Humidity 83    
Maximum Humidity 100    
Minimum Humidity 49    
Precipitation  
Precipitation 0.16 in - - ()
Sea Level Pressure  
Sea Level Pressure 30.00 in    
Wind  
Wind Speed 4 mph (North)    
Max Wind Speed 10 mph    
Max Gust Speed 20 mph    
Visibility 10 miles    
Events Rain    
Averages and records for this station are not official NWS values.
T = Trace of Precipitation, MM = Missing Value Source: NWS Daily Summary

Daily Weather History Graph

Daily Weather History Graph

Search for Another Location

Airport or City:

Trip Planner

Search our weather history database for the weather conditions in past years. The results will help you decide how hot, cold, wet, or windy it might be!

Date:

Astronomy

Feb. 07, 2013 Rise Set
Actual Time 6:54 AM CST 5:26 PM CST
Civil Twilight 6:26 AM CST 5:54 PM CST
Nautical Twilight 5:55 AM CST 6:25 PM CST
Astronomical Twilight 5:25 AM CST 6:55 PM CST
Moon 4:31 AM CST (2/7) 2:52 PM CST (2/7)
Length of Visible Light 11h 27m
Length of Day
10h 32m
Waning Crescent, 9% of the Moon is Illuminated
Feb 7
Waning Crescent
Feb 10
New
Feb 17
First Quarter
Feb 25
Full
Mar 4
Last Quarter

Hourly Weather History & Observations

Time (CST) Temp. Windchill Dew Point Humidity Pressure Visibility Wind Dir Wind Speed Gust Speed Precip Events Conditions
12:15 AM 41.0 °F 39.0 °F 32.0 °F 70% 30.11 in 10.0 mi ESE 3.5 mph - N/A   Clear
12:35 AM 41.0 °F - 32.0 °F 70% 30.11 in 10.0 mi Calm Calm - N/A   Clear
12:55 AM 41.0 °F 39.0 °F 32.0 °F 70% 30.10 in 10.0 mi East 3.5 mph - N/A   Clear
1:15 AM 41.0 °F 34.7 °F 32.0 °F 70% 30.07 in 10.0 mi ESE 10.4 mph - N/A   Clear
1:35 AM 41.0 °F 39.0 °F 32.0 °F 70% 30.09 in 10.0 mi SSE 3.5 mph - N/A   Clear
1:55 AM 39.2 °F 37.0 °F 32.0 °F 75% 30.09 in 10.0 mi ESE 3.5 mph - N/A   Clear
2:15 AM 37.4 °F - 32.0 °F 81% 30.09 in 10.0 mi Calm Calm - N/A   Clear
2:35 AM 37.4 °F 34.9 °F 32.0 °F 81% 30.08 in 10.0 mi ESE 3.5 mph - N/A   Clear
2:55 AM 35.6 °F - 32.0 °F 87% 30.07 in 10.0 mi Calm Calm - N/A   Clear
3:15 AM 37.4 °F 34.9 °F 32.0 °F 81% 30.07 in 10.0 mi ENE 3.5 mph - N/A   Clear
3:35 AM 35.6 °F - 32.0 °F 87% 30.07 in 10.0 mi Calm Calm - N/A   Clear
3:55 AM 35.6 °F - 32.0 °F 87% 30.06 in 10.0 mi Calm Calm - N/A   Clear
4:15 AM 35.6 °F - 32.0 °F 87% 30.05 in 10.0 mi Calm Calm - N/A   Clear
4:35 AM 35.6 °F - 32.0 °F 87% 30.04 in 10.0 mi Calm Calm - N/A   Clear
4:55 AM 37.4 °F - 32.0 °F 81% 30.04 in 10.0 mi Calm Calm - N/A   Clear
5:15 AM 35.6 °F - 30.2 °F 81% 30.03 in 10.0 mi Calm Calm - N/A   Clear
5:35 AM 32.0 °F 28.7 °F 30.2 °F 93% 30.04 in 7.0 mi North 3.5 mph - N/A   Clear
6:55 AM 37.4 °F 32.8 °F 30.2 °F 75% 30.03 in 10.0 mi East 5.8 mph - N/A   Clear
7:55 AM 39.2 °F 35.0 °F 33.8 °F 81% 30.02 in 15.0 mi SE 5.8 mph - N/A   Clear
12:55 PM 64.4 °F - 44.6 °F 49% 29.92 in 20.0 mi SSW 9.2 mph - N/A   Scattered Clouds
1:55 PM 64.4 °F - 44.6 °F 49% 29.90 in 20.0 mi South 9.2 mph - N/A   Scattered Clouds
4:55 PM 60.8 °F - 48.2 °F 63% 29.86 in 20.0 mi SSW 9.2 mph - N/A   Mostly Cloudy
6:55 PM 55.4 °F - 53.6 °F 94% 29.90 in 7.0 mi Calm Calm - 0.09 in Rain Rain
7:15 PM 55.4 °F - 53.6 °F 94% 29.90 in 5.0 mi WNW 3.5 mph - 0.02 in Rain Light Rain
7:35 PM 53.6 °F - 53.6 °F 100% 29.91 in 5.0 mi NW 6.9 mph - 0.04 in Rain Rain
7:55 PM 53.6 °F - 51.8 °F 94% 29.91 in 5.0 mi NW 5.8 mph - 0.05 in Rain Rain
8:15 PM 53.6 °F - 51.8 °F 94% 29.91 in 7.0 mi NW 4.6 mph - 0.01 in Rain Light Rain
8:35 PM 51.8 °F - 50.0 °F 94% 29.92 in 7.0 mi NW 6.9 mph 16.1 mph 0.01 in Rain Light Rain
8:55 PM 51.8 °F - 50.0 °F 94% 29.92 in 7.0 mi NW 6.9 mph - 0.01 in Rain Light Rain
9:15 PM 50.0 °F - 48.2 °F 94% 29.93 in 7.0 mi NNW 8.1 mph - N/A Rain Rain
9:35 PM 50.0 °F - 46.4 °F 87% 29.94 in 7.0 mi NW 9.2 mph - 0.01 in Rain Rain
9:55 PM 50.0 °F - 46.4 °F 87% 29.94 in 7.0 mi NNW 9.2 mph - 0.01 in Rain Rain
10:15 PM 48.2 °F - 46.4 °F 93% 29.95 in 10.0 mi NNW 9.2 mph - N/A   Light Drizzle
10:55 PM 46.4 °F 41.5 °F 44.6 °F 93% 29.96 in 7.0 mi NNW 10.4 mph 19.6 mph N/A   Overcast
11:15 PM 46.4 °F 41.5 °F 44.6 °F 93% 29.97 in 10.0 mi NNW 10.4 mph 18.4 mph N/A   Overcast
11:35 PM 44.6 °F 40.2 °F 42.8 °F 93% 29.98 in 7.0 mi NNW 8.1 mph 17.3 mph N/A   Overcast
11:55 PM 44.6 °F 39.7 °F 42.8 °F 93% 29.99 in 10.0 mi NNW 9.2 mph 18.4 mph N/A   Overcast